[Date Prev][Date Next][Thread Prev][Thread Next] - [Date Index][Thread Index][Author Index]
2 Line ISS Keps 2-20
- Subject: [sarex] 2 Line ISS Keps 2-20
- From: "Dave Larsen PhD" <doc@xxxxxxxxxxx>
- Date: Sat, 19 Feb 2005 17:56:30 -0800
ISS
1 25544U 98067A 05051.01844907 .00031166 00000-0 25684-3 0 8516
2 25544 51.6457 140.1336 0004569 117.3970 228.3816 15.70065537357251
----
Via the sarex mailing list at AMSAT.ORG courtesy of AMSAT-NA.
To unsubscribe, send "unsubscribe sarex" to Majordomo@amsat.org
AMSAT Home